Change the Weather History Date:

Thursday, December 13, 2012

  Actual Average Record
Temperature  
Mean Temperature 19 °F 16 °F  
Max Temperature 26 °F 27 °F 62 °F (1876)
Min Temperature 11 °F 7 °F -33 °F (1917)
Degree Days  
Heating Degree Days 46 48  
Month to date heating degree days 526 601  
Since 1 July heating degree days 2523 2587  
Cooling Degree Days 0 0  
Month to date cooling degree days 0 0  
Year to date cooling degree days 599 520  
Moisture  
Dew Point 14 °F    
Average Humidity 88    
Maximum Humidity 100    
Minimum Humidity 76    
Precipitation  
Precipitation 0.01 in 0.02 in 0.31 in (1906)
Month to date precipitation 0.32 0.20  
Year to date precipitation 14.59 17.56  
Snow  
Snow 0.20 in 0.30 in 5.90 in (2008)
Month to date snowfall 5.5 3.6  
Since 1 July snowfall 16.0 14.8  
Snow Depth 5.00 in    
Sea Level Pressure  
Sea Level Pressure 30.03 in    
Wind  
Wind Speed 7 mph (ESE)    
Max Wind Speed 14 mph    
Max Gust Speed 16 mph    
Visibility 7 miles    
Events Snow    
T = Trace of Precipitation, MM = Missing Value Source: NWS Daily Summary

Daily Weather History Graph

Daily Weather History Graph

Search for Another Location

Airport or City:

Trip Planner

Search our weather history database for the weather conditions in past years. The results will help you decide how hot, cold, wet, or windy it might be!

Date:

Astronomy

Dec. 13, 2012 Rise Set
Actual Time 8:20 AM CST 4:54 PM CST
Civil Twilight 7:44 AM CST 5:30 PM CST
Nautical Twilight 7:06 AM CST 6:08 PM CST
Astronomical Twilight 6:29 AM CST 6:45 PM CST
Moon 8:29 AM CST (12/13) 5:41 PM CST (12/13)
Length of Visible Light 9h 45m
Length of Day
8h 34m
New Moon, 0% of the Moon is Illuminated
Dec 13
New Moon
Dec 19
First Quarter
Dec 28
Full
Jan 4
Last Quarter
Jan 11
New

Hourly Weather History & Observations

Time (CST) Temp. Windchill Dew Point Humidity Pressure Visibility Wind Dir Wind Speed Gust Speed Precip Events Conditions
12:04 AM 17.1 °F 4.3 °F 14.0 °F 88% 29.91 in 2.5 mi NNE 11.5 mph - 0.00 in Snow Light Snow
12:11 AM 17.1 °F 5.8 °F 14.0 °F 88% 29.91 in 4.0 mi NE 9.2 mph - 0.00 in Snow Light Snow
12:25 AM 17.1 °F 5.8 °F 12.9 °F 84% 29.92 in 2.5 mi NNE 9.2 mph - 0.00 in Snow Light Snow
12:32 AM 17.1 °F 5.8 °F 12.9 °F 84% 29.92 in 5.0 mi NNE 9.2 mph - 0.00 in Snow Light Snow
12:52 AM 17.1 °F 8.7 °F 12.9 °F 84% 30.00 in 7.0 mi NNE 5.8 mph - 0.00 in Snow Light Snow
1:34 AM 17.1 °F 8.7 °F 12.9 °F 84% 29.94 in 2.5 mi NNE 5.8 mph - 0.00 in Snow Light Snow
1:41 AM 18.0 °F 8.7 °F 14.0 °F 84% 29.94 in 2.5 mi NNE 6.9 mph - 0.01 in Snow Light Snow
1:52 AM 17.1 °F 5.8 °F 12.9 °F 84% 30.03 in 1.8 mi NNE 9.2 mph - 0.01 in Snow Light Snow
2:04 AM 17.1 °F 5.8 °F 12.9 °F 84% 29.95 in 2.0 mi NNE 9.2 mph - 0.00 in Snow Light Snow
2:17 AM 16.0 °F 2.9 °F 12.0 °F 84% 29.95 in 3.0 mi NNE 11.5 mph - 0.00 in Snow Light Snow
2:52 AM 15.1 °F 4.2 °F 10.0 °F 80% 30.06 in 5.0 mi NE 8.1 mph - 0.00 in Snow Light Snow
3:52 AM 14.0 °F 2.0 °F 10.0 °F 84% 30.07 in 6.0 mi NE 9.2 mph - 0.00 in Snow Light Snow
4:52 AM 12.9 °F 2.6 °F 9.0 °F 84% 30.07 in 10.0 mi ENE 6.9 mph - 0.00 in   Overcast
5:26 AM 10.9 °F 4.7 °F 7.0 °F 84% 29.99 in 10.0 mi East 3.5 mph - N/A   Overcast
5:52 AM 12.0 °F - 7.0 °F 80% 30.11 in 10.0 mi Calm Calm - N/A   Overcast
6:44 AM 14.0 °F - 8.1 °F 77% 30.03 in 10.0 mi Calm Calm - N/A   Overcast
6:52 AM 14.0 °F - 9.0 °F 80% 30.14 in 10.0 mi Calm Calm - N/A   Overcast
7:52 AM 12.9 °F 3.8 °F 8.1 °F 81% 30.14 in 8.0 mi ENE 5.8 mph - N/A   Overcast
8:27 AM 12.9 °F 3.8 °F 9.0 °F 84% 30.05 in 2.0 mi East 5.8 mph - 0.00 in Snow Light Snow
8:37 AM 12.9 °F 2.6 °F 9.0 °F 84% 30.04 in 1.5 mi ESE 6.9 mph - 0.00 in Snow Light Snow
8:52 AM 12.9 °F 1.6 °F 9.0 °F 84% 30.14 in 2.0 mi ESE 8.1 mph - 0.00 in Snow Light Snow
9:01 AM 12.9 °F 1.6 °F 9.0 °F 84% 30.04 in 5.0 mi ESE 8.1 mph - 0.00 in   Overcast
9:33 AM 14.0 °F 2.9 °F 10.4 °F 86% 30.05 in 9.0 mi ESE 8.1 mph - N/A   Overcast
9:52 AM 14.0 °F 3.9 °F 10.0 °F 84% 30.14 in 10.0 mi SE 6.9 mph - 0.00 in   Overcast
10:24 AM 15.1 °F 3.3 °F 10.9 °F 84% 30.04 in 10.0 mi SSE 9.2 mph - N/A   Overcast
10:41 AM 16.0 °F 6.3 °F 12.0 °F 84% 30.05 in 10.0 mi SE 6.9 mph - N/A   Overcast
10:52 AM 16.0 °F 7.4 °F 12.0 °F 84% 30.14 in 10.0 mi SSE 5.8 mph - N/A   Overcast
11:52 AM 18.0 °F 7.7 °F 14.0 °F 84% 30.13 in 10.0 mi SSE 8.1 mph - N/A   Overcast
12:32 PM 19.0 °F 11.1 °F 15.1 °F 85% 30.02 in 10.0 mi SSE 5.8 mph - N/A   Overcast
12:52 PM 19.9 °F 11.1 °F 16.0 °F 85% 30.11 in 10.0 mi SSE 6.9 mph - N/A   Overcast
1:41 PM 21.0 °F 13.4 °F 17.1 °F 85% 30.00 in 10.0 mi SSE 5.8 mph - N/A   Scattered Clouds
1:52 PM 19.9 °F 13.4 °F 17.1 °F 89% 30.10 in 10.0 mi SSE 4.6 mph - N/A   Partly Cloudy
2:05 PM 21.0 °F 14.6 °F 17.1 °F 85% 30.00 in 10.0 mi SSE 4.6 mph - N/A   Mostly Cloudy
2:29 PM 24.1 °F 17.0 °F 18.0 °F 77% 30.00 in 10.0 mi SSW 5.8 mph - N/A   Overcast
2:52 PM 23.0 °F 15.8 °F 18.0 °F 81% 30.09 in 9.0 mi SSW 5.8 mph - N/A   Overcast
3:52 PM 23.0 °F 18.4 °F 19.0 °F 85% 30.07 in 8.0 mi East 3.5 mph - N/A   Overcast
4:29 PM 24.1 °F 17.0 °F 19.9 °F 84% 29.97 in 8.0 mi ESE 5.8 mph - N/A   Overcast
4:52 PM 24.8 °F 16.1 °F 21.2 °F 86% 29.97 in 8.0 mi SSE 8.1 mph - N/A   Overcast
6:52 PM 26.1 °F 16.2 °F 24.1 °F 92% 30.07 in 8.0 mi South 10.4 mph - N/A   Overcast
7:41 PM 26.1 °F 17.6 °F 24.1 °F 92% 29.97 in 7.0 mi South 8.1 mph - N/A   Overcast
7:52 PM 26.1 °F 17.6 °F 24.1 °F 92% 30.06 in 6.0 mi South 8.1 mph - N/A   Overcast
8:52 PM 25.0 °F 16.3 °F 24.1 °F 96% 30.05 in 3.0 mi South 8.1 mph - N/A   Overcast
9:52 PM 25.0 °F 15.5 °F 23.0 °F 92% 30.03 in 6.0 mi South 9.2 mph - N/A   Overcast
10:52 PM 24.1 °F 14.4 °F 23.0 °F 96% 30.03 in 4.0 mi South 9.2 mph - N/A   Overcast
11:52 PM 24.8 °F 17.9 °F 23.0 °F 93% 29.93 in 4.0 mi South 5.8 mph - N/A   Overcast